Juan de Fuca Strait - central strait: Past 24 Hour Conditions

 

La Perouse Bank - 46206

04:00 AM PDT 17 October 2017Buoy position: 48.83N 126.0W
Disclaimer

This table is a summary of hourly weather conditions for the past 24 hours.
Please note that these observations might not always be representative of weather conditions over their associated marine area.

Date / Time
(PDT)
Wind(knots) Wave height(m) Wave period(s) Pressure(kPa) Air tempC) Water tempC)
17 October 2017
4:00 W 18 gust 23 3.9 11.0 100.8 12 13
3:00 S 25 gust 33 3.9 11.0 100.7 14 13
2:00 S 25 gust 31 3.7 9.0 100.8 14 13
1:00 S 25 gust 29 3.9 11.0 101.0 14 13
0:00 S 23 gust 27 3.7 12.0 101.0 14 13
16 October 2017
23:00 S 21 gust 25 3.4 13.0 101.1 14 13
22:00 S 19 gust 23 3.4 10.0 101.2 14 13
21:00 S 19 gust 23 3.4 12.0 101.3 14 13
20:00 S 19 gust 23 3.2 10.0 101.3 14 13
19:00 S 19 gust 23 3.3 10.0 101.4 14 13
18:00 S 19 gust 23 3.0 12.0 101.5 14 13
17:00 SSW 19 gust 21 3.1 10.0 101.6 14 13
16:00 SSW 18 gust 21 3.1 10.0 101.7 14 13
15:00 SSW 19 gust 23 3.3 10.0 101.7 13 13
14:00 SSW 19 gust 23 3.2 9.0 101.8 13 13
13:00 SSW 19 gust 23 2.9 10.0 101.8 13 12
12:00 SSW 19 gust 23 2.8 11.0 101.8 13 12
11:00 S 19 gust 21 2.6 11.0 101.8 13 11
10:00 S 18 gust 21 2.5 10.0 101.8 12 11
9:00 S 16 gust 19 2.4 11.0 101.9 12 11
8:00 S 18 gust 19 2.5 11.0 101.9 12 11
7:00 S 16 gust 19 2.4 11.0 102.0 12 11
6:00 SSE 16 gust 16 2.4 11.0 102.0 12 11
5:00 SSE 14 gust 16 2.2 11.0 102.1 12 11
4:00 SSE 12 gust 16 2.3 11.0 102.1 12 11

Zoom-in to make a selection

Map of Pacific - Georgia Basin marine weather areas Tsawwassen Ferry Terminal Sentry Shoal - 46131 Halibut Bank - 46146 La Perouse Bank - 46206 Discovery Island Esquimalt Harbour Kelp Reefs Malahat Race Rocks Lightstation Saturna Island Sheringham Point University of Victoria Victoria Gonzales Victoria Int'l Airport Ballenas Islands Campbell River Airport Comox Airport Entrance Island Fanny Island Nanaimo Airport Sisters Islets Estevan Point Tofino Airport Grief Point Powell River Airport Sechelt Point Atkinson Sand Heads Lightstation Vancouver Harbour Vancouver Int'l Airport West Vancouver Port Alberni Howe Sound - Pam Rocks Squamish Airport
Legend:
buoy Buoy
land station Land Station

Pacific - Georgia Basin Area

Another Region

What we are doing

Date modified: